Poplar Bluff, MO

12:16 PM CST on November 20, 2017 (GMT -0600)
Poplar Bluff Municipal

Weather History for KPOF - August, 2012

Change the Weather History Date:

Wednesday, August 8, 2012

  Actual Average Record
Temperature  
Mean Temperature 81 °F -  
Max Temperature 97 °F 88 °F 109 °F (1930)
Min Temperature 66 °F 66 °F 53 °F (1976)
Cooling Degree Days 16    
Growing Degree Days 31 (Base 50)    
Moisture  
Dew Point 67 °F    
Average Humidity 63    
Maximum Humidity 90    
Minimum Humidity 33    
Precipitation  
Precipitation 0.00 in - - ()
Sea Level Pressure  
Sea Level Pressure 29.92 in    
Wind  
Wind Speed 3 mph (SSW)    
Max Wind Speed 10 mph    
Max Gust Speed -    
Visibility 10 miles    
Events      
Averages and records for this station are not official NWS values.
T = Trace of Precipitation, MM = Missing Value Source: NWS Daily Summary

Daily Weather History Graph

Daily Weather History Graph

Search for Another Location

Airport or City:

Trip Planner

Search our weather history database for the weather conditions in past years. The results will help you decide how hot, cold, wet, or windy it might be!

Date:

Astronomy

Aug. 08, 2012 Rise Set
Actual Time 6:13 AM CDT 7:59 PM CDT
Civil Twilight 5:45 AM CDT 8:27 PM CDT
Nautical Twilight 5:11 AM CDT 9:01 PM CDT
Astronomical Twilight 4:35 AM CDT 9:37 PM CDT
Moon 11:27 PM CDT (8/8) 12:45 PM CDT (8/8)
Length of Visible Light 14h 42m
Length of Day
13h 46m
Waning Gibbous, 60% of the Moon is Illuminated
Aug 8
Waning Gibbous
Aug 9
Last Quarter
Aug 17
New
Aug 24
First Quarter
Aug 31
Full

Hourly Weather History & Observations

Time (CDT) Temp. Heat Index Dew Point Humidity Pressure Visibility Wind Dir Wind Speed Gust Speed Precip Events Conditions
12:53 AM 71.1 °F - 66.9 °F 87% 29.95 in 10.0 mi Calm Calm - N/A   Clear
1:53 AM 70.0 °F - 66.0 °F 87% 29.95 in 10.0 mi NNW 3.5 mph - N/A   Clear
2:53 AM 69.1 °F - 64.9 °F 87% 29.95 in 10.0 mi Calm Calm - N/A   Clear
3:53 AM 68.0 °F - 64.0 °F 87% 29.95 in 10.0 mi Calm Calm - N/A   Clear
4:53 AM 68.0 °F - 64.0 °F 87% 29.95 in 10.0 mi Calm Calm - N/A   Clear
5:53 AM 66.0 °F - 63.0 °F 90% 29.95 in 10.0 mi Calm Calm - N/A   Clear
8:53 AM 82.0 °F 84.5 °F 66.9 °F 60% 29.98 in 10.0 mi Calm Calm - N/A   Clear
9:53 AM 87.1 °F 89.9 °F 66.9 °F 51% 29.97 in 10.0 mi WSW 3.5 mph - N/A   Clear
10:53 AM 91.0 °F 92.6 °F 64.0 °F 41% 29.97 in 10.0 mi SW 4.6 mph - N/A   Clear
11:53 AM 93.0 °F 95.0 °F 64.9 °F 39% 29.97 in 10.0 mi SSW 10.4 mph - N/A   Clear
12:53 PM 93.9 °F 96.1 °F 64.9 °F 38% 29.94 in 10.0 mi SW 9.2 mph - N/A   Clear
1:53 PM 93.0 °F 95.9 °F 66.0 °F 41% 29.93 in 10.0 mi South 8.1 mph - N/A   Clear
2:53 PM 96.1 °F 97.3 °F 63.0 °F 33% 29.91 in 10.0 mi South 5.8 mph - N/A   Clear
3:53 PM 95.0 °F 97.9 °F 66.0 °F 38% 29.89 in 10.0 mi SSW 8.1 mph - N/A   Clear
4:53 PM 93.0 °F 97.4 °F 68.0 °F 44% 29.87 in 10.0 mi SSW 4.6 mph - N/A   Clear
5:53 PM 91.0 °F 96.6 °F 70.0 °F 50% 29.87 in 10.0 mi SW 3.5 mph - N/A   Clear
6:53 PM 90.0 °F 95.4 °F 70.0 °F 52% 29.86 in 10.0 mi South 5.8 mph - N/A   Clear
7:53 PM 86.0 °F 88.8 °F 66.9 °F 53% 29.86 in 10.0 mi South 3.5 mph - N/A   Clear
8:53 PM 81.0 °F 84.1 °F 69.1 °F 67% 29.87 in 10.0 mi Calm Calm - N/A   Clear
9:53 PM 79.0 °F - 69.1 °F 72% 29.86 in 10.0 mi SSE 3.5 mph - N/A   Clear
10:53 PM 75.9 °F - 71.1 °F 85% 29.88 in 9.0 mi NNW 4.6 mph - N/A   Clear
11:53 PM 75.9 °F - 72.0 °F 87% 29.87 in 10.0 mi Calm Calm - N/A   Clear